�N����,����,�~����,�C��,���x,�C��,����,���ϕ���,�ő�u�ԕ���,�ő厞����,���˗�,�I�_���x,�n�����x,�ő啗���N��,DTYPE
"23/08/29","00:10",0.0,24.7,89.4,1005.2,335.0,0.8,1.2,337.1,0.00,22.9,26.4,"00:09:28",1
"23/08/29","00:20",0.0,24.5,89.6,1005.5,337.0,0.8,1.1,337.0,0.00,22.7,26.5,"00:12:32",1
"23/08/29","00:30",0.0,24.4,89.9,1005.5,321.0,0.7,1.4,328.1,0.00,22.7,26.6,"00:29:36",1
"23/08/29","00:40",0.0,24.4,90.1,1005.7,329.7,1.0,1.3,337.0,0.00,22.7,26.6,"00:31:04",1
"23/08/29","00:50",0.0,24.2,90.3,1005.5,308.8,0.6,0.9,340.5,0.00,22.5,26.5,"00:40:48",1
"23/08/29","01:00",0.0,24.2,90.6,1005.5,299.5,0.6,1.0,262.9,0.00,22.6,26.4,"00:59:36",1
"23/08/29","01:10",0.0,24.2,90.7,1005.5,295.7,0.7,1.2,262.6,0.00,22.6,26.3,"01:08:08",1
"23/08/29","01:20",0.0,24.3,90.9,1005.7,302.8,0.8,1.3,330.4,0.00,22.8,26.4,"01:18:24",1
"23/08/29","01:30",0.0,24.3,91.0,1005.7,327.8,0.7,1.1,300.0,0.00,22.8,26.3,"01:20:40",1
"23/08/29","01:40",0.0,24.2,91.2,1005.7,307.3,0.8,1.4,324.5,0.00,22.7,26.2,"01:38:32",1
"23/08/29","01:50",0.0,24.2,91.2,1005.7,305.7,0.8,1.7,327.3,0.00,22.7,26.2,"01:41:28",1
"23/08/29","02:00",0.0,24.2,91.3,1005.5,330.6,1.0,1.8,338.8,0.00,22.7,26.2,"01:56:24",1
"23/08/29","02:10",0.0,24.0,91.4,1005.7,305.9,0.6,1.0,312.4,0.00,22.6,26.3,"02:03:28",1
"23/08/29","02:20",0.0,23.9,91.5,1005.5,302.2,0.7,1.1,323.7,0.00,22.5,26.2,"02:16:24",1
"23/08/29","02:30",0.0,23.9,91.6,1005.7,287.5,0.6,0.9,306.2,0.00,22.5,26.2,"02:22:16",1
"23/08/29","02:40",0.0,23.9,91.8,1006.0,280.9,0.7,1.1,319.6,0.00,22.5,25.9,"02:33:36",1
"23/08/29","02:50",0.0,24.1,91.8,1006.2,317.0,1.0,1.7,324.7,0.00,22.7,26.2,"02:48:08",1
"23/08/29","03:00",0.0,24.1,91.9,1006.2,337.0,0.7,1.0,350.6,0.00,22.7,26.1,"02:53:52",1
"23/08/29","03:10",0.0,24.1,91.9,1006.2,290.3,0.3,0.8,262.2,0.00,22.7,26.0,"03:04:00",1
"23/08/29","03:20",0.0,24.0,92.0,1006.0,304.5,0.5,1.0,335.5,0.00,22.7,25.9,"03:19:20",1
"23/08/29","03:30",0.0,24.0,92.1,1006.0,339.2,0.7,1.1,313.2,0.00,22.7,26.0,"03:22:48",1
"23/08/29","03:40",0.0,23.9,92.2,1006.0,331.5,0.8,1.2,351.4,0.00,22.6,26.0,"03:30:56",1
"23/08/29","03:50",0.0,23.8,92.3,1006.2,297.9,0.7,1.1,302.6,0.00,22.5,25.8,"03:45:04",1
"23/08/29","04:00",0.0,23.8,92.5,1006.2,297.2,0.8,1.7,314.0,0.00,22.6,25.9,"03:54:40",1
"23/08/29","04:10",0.0,23.7,92.6,1006.4,315.3,0.7,1.2,322.6,0.00,22.5,26.0,"04:04:08",1
"23/08/29","04:20",0.0,23.7,92.7,1006.4,315.9,0.8,1.2,327.2,0.00,22.5,25.9,"04:17:52",1
"23/08/29","04:30",0.0,23.6,92.8,1006.4,313.1,1.0,1.2,333.0,0.00,22.4,26.0,"04:28:40",1
"23/08/29","04:40",0.0,23.6,92.9,1006.2,290.4,0.7,1.1,308.6,0.00,22.4,26.0,"04:34:56",1
"23/08/29","04:50",0.0,23.7,93.0,1006.7,299.9,0.8,1.6,331.8,0.00,22.5,25.7,"04:49:20",1
"23/08/29","05:00",0.0,23.7,93.1,1006.4,304.4,1.0,1.4,337.0,0.00,22.6,25.7,"04:51:12",1
"23/08/29","05:10",0.0,23.6,93.1,1006.9,300.9,0.6,1.0,308.1,0.00,22.5,25.7,"05:00:24",1
"23/08/29","05:20",0.0,23.6,93.2,1006.9,319.7,0.7,1.1,329.5,0.00,22.5,25.9,"05:15:36",1
"23/08/29","05:30",0.0,23.8,93.3,1006.9,341.2,0.8,1.3,343.6,0.00,22.7,25.7,"05:28:16",1
"23/08/29","05:40",0.0,23.9,93.3,1006.7,333.9,1.0,1.6,320.2,0.00,22.8,25.6,"05:39:20",1
"23/08/29","05:50",0.0,23.9,93.4,1006.9,267.4,1.0,2.1,246.4,0.00,22.8,25.7,"05:44:32",1
"23/08/29","06:00",0.0,24.1,93.5,1006.9,322.4,1.1,1.8,333.5,0.00,23.0,25.5,"05:54:16",1
"23/08/29","06:10",0.0,24.5,93.4,1006.9,327.5,0.8,1.8,341.3,0.01,23.4,25.7,"06:01:44",1
"23/08/29","06:20",0.0,25.1,93.3,1006.9,307.4,0.5,1.1,331.2,0.01,24.0,25.8,"06:11:12",1
"23/08/29","06:30",0.0,25.1,92.9,1006.9,331.1,0.8,1.7,342.1,0.03,23.9,25.6,"06:21:20",1
"23/08/29","06:40",0.0,25.7,92.8,1006.7,263.3,0.3,1.0,238.1,0.05,24.5,25.6,"06:31:36",1
"23/08/29","06:50",0.0,26.3,92.4,1007.1,250.7,0.1,0.6,242.1,0.06,25.0,25.7,"06:45:52",1
"23/08/29","07:00",0.0,26.3,91.1,1006.9,281.6,0.3,0.9,348.6,0.08,24.8,25.5,"06:58:00",1
"23/08/29","07:10",0.0,27.1,90.3,1006.7,165.9,0.5,1.2,181.5,0.09,25.4,25.7,"07:04:24",1
"23/08/29","07:20",0.0,27.9,87.4,1006.4,50.6,0.3,1.1,58.0,0.13,25.7,25.7,"07:14:08",1
"23/08/29","07:30",0.0,28.2,84.8,1006.9,144.4,0.5,1.6,134.5,0.13,25.4,25.8,"07:26:48",1
"23/08/29","07:40",0.0,28.1,82.1,1007.1,259.2,0.2,0.6,223.5,0.08,24.8,25.8,"07:30:32",1
"23/08/29","07:50",0.0,28.3,80.9,1006.9,56.0,0.3,1.1,23.5,0.12,24.7,25.6,"07:48:32",1
"23/08/29","08:00",0.0,29.3,78.4,1007.1,81.5,0.6,1.3,114.5,0.20,25.2,25.7,"07:57:04",1
"23/08/29","08:10",0.0,29.8,75.6,1007.8,29.1,0.5,1.3,16.3,0.22,25.1,25.6,"08:02:40",1
"23/08/29","08:20",0.0,30.0,74.3,1007.8,20.7,0.3,1.3,228.4,0.25,25.0,25.6,"08:14:24",1
"23/08/29","08:30",0.0,30.4,72.1,1008.1,40.4,0.7,2.1,5.0,0.25,24.8,25.9,"08:22:40",1
"23/08/29","08:40",0.0,29.8,72.9,1008.1,122.8,0.8,2.1,128.6,0.11,24.5,25.9,"08:32:24",1
"23/08/29","08:50",0.0,30.7,74.9,1007.8,22.9,0.5,1.1,106.0,0.30,25.8,25.9,"08:46:56",1
"23/08/29","09:00",0.0,31.1,70.6,1008.8,162.8,0.7,3.3,234.1,0.33,25.2,26.0,"08:50:02",1
"23/08/29","09:10",0.0,31.0,71.4,1009.0,186.1,1.5,3.3,230.2,0.36,25.3,25.9,"09:04:40",1
"23/08/29","09:20",0.0,31.3,69.1,1009.5,146.6,1.7,4.0,203.5,0.44,25.0,25.9,"09:19:28",1
"23/08/29","09:30",0.0,31.3,68.9,1009.3,172.0,1.5,3.3,197.7,0.42,24.9,25.9,"09:23:12",1
"23/08/29","09:40",0.0,31.4,68.5,1009.0,185.8,1.3,3.4,175.8,0.36,24.9,26.1,"09:30:02",1
"23/08/29","09:50",0.0,31.3,68.3,1009.0,176.1,1.7,3.7,228.3,0.36,24.8,26.3,"09:42:08",1
"23/08/29","10:00",0.0,31.3,65.1,1009.3,170.1,1.6,4.1,217.4,0.41,24.0,26.3,"09:55:28",1
"23/08/29","10:10",0.0,31.9,67.6,1008.8,166.5,1.1,4.1,195.6,0.40,25.2,26.1,"10:00:24",1
"23/08/29","10:20",0.0,32.1,63.6,1009.0,184.1,1.7,3.5,183.5,0.42,24.4,26.3,"10:13:12",1
"23/08/29","10:30",0.0,31.7,61.1,1008.6,185.1,1.7,3.6,186.9,0.32,23.3,26.4,"10:23:12",1
"23/08/29","10:40",0.0,32.0,60.6,1008.8,192.4,2.1,4.7,230.2,0.40,23.5,26.4,"10:38:40",1
"23/08/29","10:50",0.0,32.5,59.8,1008.3,181.5,2.1,5.2,187.1,0.49,23.7,26.6,"10:46:40",1
"23/08/29","11:00",0.0,33.1,59.4,1008.3,177.9,1.6,4.3,199.4,0.50,24.2,26.6,"10:57:52",1
"23/08/29","11:10",0.0,32.7,57.0,1008.6,176.2,2.3,4.1,196.7,0.50,23.1,26.6,"11:03:52",1
"23/08/29","11:20",0.0,33.3,56.2,1008.3,199.0,1.5,4.0,209.8,0.51,23.4,26.7,"11:11:12",1
"23/08/29","11:30",0.0,33.4,57.6,1008.1,161.6,1.2,2.8,144.2,0.46,23.9,26.6,"11:22:24",1
"23/08/29","11:40",0.0,33.4,53.6,1008.3,207.1,1.5,4.7,213.2,0.44,22.7,26.7,"11:38:16",1
"23/08/29","11:50",0.0,33.7,54.3,1008.1,199.4,2.0,3.7,200.0,0.51,23.2,26.8,"11:44:16",1
"23/08/29","12:00",0.0,33.7,54.2,1008.3,203.9,1.7,4.7,197.3,0.42,23.2,27.0,"11:55:20",1
"23/08/29","12:10",0.0,33.6,55.3,1007.6,183.1,1.7,4.9,176.3,0.42,23.4,27.0,"12:02:00",1
"23/08/29","12:20",0.0,33.4,55.5,1007.6,176.7,1.5,4.1,219.4,0.25,23.3,27.0,"12:14:00",1
"23/08/29","12:30",0.0,33.7,56.9,1006.7,193.1,1.7,4.0,206.3,0.34,24.0,27.2,"12:26:00",1
"23/08/29","12:40",0.0,34.1,51.8,1006.9,191.1,2.0,4.8,159.4,0.47,22.8,27.1,"12:38:40",1
"23/08/29","12:50",0.0,34.2,50.5,1006.9,170.9,2.2,4.9,191.5,0.46,22.5,27.2,"12:48:24",1
"23/08/29","13:00",0.0,34.8,49.6,1007.1,193.6,2.0,4.7,219.3,0.50,22.7,27.2,"12:52:16",1
"23/08/29","13:10",0.0,34.7,47.4,1007.1,196.5,2.5,5.4,219.8,0.50,21.9,27.3,"13:03:20",1
"23/08/29","13:20",0.0,34.8,46.8,1007.1,221.4,2.7,4.8,232.5,0.49,21.8,27.2,"13:16:16",1
"23/08/29","13:30",0.0,35.1,46.3,1007.1,184.7,1.7,5.4,219.9,0.48,21.9,27.3,"13:28:48",1
"23/08/29","13:40",0.0,35.2,48.0,1007.4,211.7,2.0,7.1,217.7,0.47,22.6,27.4,"13:38:08",1
"23/08/29","13:50",0.0,35.3,48.1,1006.9,198.0,2.3,5.9,220.8,0.45,22.7,27.7,"13:41:12",1
"23/08/29","14:00",0.0,35.2,46.3,1006.9,203.1,2.6,4.5,217.3,0.45,22.0,27.7,"13:51:20",1
"23/08/29","14:10",0.0,35.3,45.6,1006.9,214.5,2.7,5.2,237.3,0.43,21.8,27.9,"14:04:00",1
"23/08/29","14:20",0.0,35.5,45.9,1006.9,193.0,1.8,5.7,201.3,0.40,22.1,27.6,"14:12:48",1
"23/08/29","14:30",0.0,35.1,48.6,1006.7,178.7,1.3,4.8,191.3,0.30,22.7,27.9,"14:22:00",1
"23/08/29","14:40",0.0,36.1,46.6,1006.9,273.9,1.0,2.9,223.8,0.37,22.9,27.9,"14:34:00",1
"23/08/29","14:50",0.0,35.7,45.2,1006.7,214.3,2.5,5.5,236.6,0.36,22.0,28.1,"14:47:44",1
"23/08/29","15:00",0.0,35.9,45.3,1006.7,244.0,1.5,4.7,226.6,0.35,22.3,28.0,"14:59:28",1
"23/08/29","15:10",0.0,35.5,45.0,1006.4,232.1,2.3,4.5,235.5,0.33,21.8,28.1,"15:07:52",1
"23/08/29","15:20",0.0,35.7,47.5,1006.2,231.0,2.0,4.2,243.3,0.31,22.9,28.0,"15:15:36",1
"23/08/29","15:30",0.0,35.9,46.7,1006.2,247.1,1.2,3.6,222.7,0.29,22.8,28.2,"15:22:24",1
"23/08/29","15:40",0.0,35.8,46.5,1006.0,205.0,2.5,4.5,218.8,0.27,22.6,28.1,"15:35:52",1
"23/08/29","15:50",0.0,35.4,46.4,1006.0,193.1,2.3,5.8,230.6,0.25,22.2,28.1,"15:43:04",1
"23/08/29","16:00",0.0,35.4,46.8,1006.0,191.3,2.0,4.3,216.2,0.21,22.3,28.1,"15:57:44",1
"23/08/29","16:10",0.0,34.9,49.4,1006.0,186.3,1.1,2.9,229.9,0.13,22.8,28.3,"16:00:56",1
"23/08/29","16:20",0.0,35.5,48.6,1005.7,196.0,1.0,3.3,199.4,0.19,23.0,28.3,"16:18:08",1
"23/08/29","16:30",0.0,35.1,53.0,1005.7,167.5,2.1,6.2,225.6,0.18,24.1,28.2,"16:24:00",1
"23/08/29","16:40",0.0,35.3,53.2,1005.7,80.7,1.0,2.6,110.0,0.16,24.4,27.9,"16:38:00",1
"23/08/29","16:50",0.0,35.5,53.3,1005.7,45.8,0.8,2.7,350.7,0.15,24.6,28.0,"16:46:08",1
"23/08/29","17:00",0.0,35.1,54.4,1006.0,27.2,1.1,2.5,5.5,0.13,24.6,28.2,"16:50:40",1
"23/08/29","17:10",0.0,34.9,55.7,1005.7,46.1,1.1,2.6,40.4,0.11,24.8,28.2,"17:03:04",1
"23/08/29","17:20",0.0,34.3,55.8,1006.0,22.8,1.1,3.4,33.4,0.07,24.2,28.1,"17:14:48",1
"23/08/29","17:30",0.0,33.5,58.2,1005.7,16.1,1.8,3.4,30.7,0.04,24.2,28.2,"17:26:16",1
"23/08/29","17:40",0.0,32.7,60.2,1005.0,12.7,2.1,4.9,38.5,0.02,24.0,28.2,"17:33:20",1
"23/08/29","17:50",0.0,32.3,62.1,1004.8,346.6,1.1,3.1,28.4,0.00,24.2,28.1,"17:49:36",1
"23/08/29","18:00",0.0,32.0,62.4,1004.8,207.6,1.3,3.9,13.1,0.00,24.0,28.2,"17:50:08",1
"23/08/29","18:10",0.0,31.9,61.3,1005.0,230.0,2.5,5.1,222.5,0.00,23.6,28.0,"18:01:52",1
"23/08/29","18:20",0.0,31.5,61.5,1005.0,232.1,1.6,3.7,226.0,0.00,23.2,28.0,"18:16:08",1
"23/08/29","18:30",0.0,31.0,63.1,1005.0,186.2,1.0,3.3,230.4,0.00,23.2,28.3,"18:26:16",1
"23/08/29","18:40",0.0,30.5,63.7,1004.8,195.7,0.8,2.5,192.7,0.00,22.9,28.0,"18:30:56",1
"23/08/29","18:50",0.0,30.2,65.0,1004.8,261.0,0.3,0.9,129.7,0.00,22.9,27.9,"18:41:20",1
"23/08/29","19:00",0.0,30.0,65.8,1004.8,328.9,1.0,2.4,335.7,0.00,22.9,28.0,"18:57:52",1
"23/08/29","19:10",0.0,29.7,66.3,1005.2,329.1,1.2,3.1,332.7,0.00,22.8,27.9,"19:08:16",1
"23/08/29","19:20",0.0,29.4,66.9,1004.8,317.2,1.1,3.6,337.2,0.00,22.6,27.8,"19:10:24",1
"23/08/29","19:30",0.0,29.1,67.5,1005.2,337.8,1.2,2.6,356.9,0.00,22.5,27.8,"19:28:24",1
"23/08/29","19:40",0.0,28.8,68.1,1006.0,349.0,1.1,2.5,311.6,0.00,22.4,27.7,"19:30:08",1
"23/08/29","19:50",0.0,28.4,68.8,1006.0,339.8,0.7,1.7,350.4,0.00,22.2,27.7,"19:48:00",1
"23/08/29","20:00",0.0,28.3,69.5,1006.2,324.1,0.6,1.2,351.1,0.00,22.2,27.5,"19:51:28",1
"23/08/29","20:10",0.0,27.9,72.5,1006.7,334.0,0.7,1.4,340.6,0.00,22.5,27.6,"20:07:04",1
"23/08/29","20:20",0.0,27.2,74.4,1006.4,329.2,1.0,1.9,339.4,0.00,22.3,27.6,"20:18:40",1
"23/08/29","20:30",0.0,27.5,74.0,1006.9,333.3,1.0,2.1,341.2,0.00,22.5,27.5,"20:24:48",1
"23/08/29","20:40",0.0,27.6,74.5,1006.9,353.3,0.8,1.9,358.7,0.00,22.7,27.4,"20:37:52",1
"23/08/29","20:50",0.0,26.9,76.4,1006.9,323.6,0.8,1.3,319.0,0.00,22.4,27.5,"20:41:12",1
"23/08/29","21:00",0.0,27.2,75.5,1007.1,325.6,1.5,2.7,339.7,0.00,22.5,27.4,"20:55:20",1
"23/08/29","21:10",0.0,27.3,74.7,1006.9,332.1,1.1,2.2,332.7,0.00,22.5,27.1,"21:07:20",1
"23/08/29","21:20",0.0,27.2,75.3,1007.4,348.9,0.6,1.2,355.8,0.00,22.5,27.2,"21:10:40",1
"23/08/29","21:30",0.0,26.8,76.9,1007.4,339.3,0.8,1.3,346.1,0.00,22.4,27.3,"21:20:08",1
"23/08/29","21:40",0.0,26.5,78.1,1007.6,340.3,1.1,1.4,347.7,0.00,22.4,27.2,"21:30:16",1
"23/08/29","21:50",0.0,26.4,78.6,1007.8,305.7,1.0,1.9,306.0,0.00,22.4,27.1,"21:44:24",1
"23/08/29","22:00",0.0,26.5,78.7,1007.8,340.5,1.0,2.1,350.8,0.00,22.5,27.1,"21:53:44",1
"23/08/29","22:10",0.0,26.3,79.2,1007.8,334.7,0.5,1.2,341.4,0.00,22.4,27.1,"22:05:44",1
"23/08/29","22:20",0.0,25.9,79.8,1008.1,319.9,0.3,1.1,324.7,0.00,22.2,26.9,"22:18:08",1
"23/08/29","22:30",0.0,25.8,80.7,1008.3,296.5,0.6,1.1,328.5,0.00,22.3,27.0,"22:29:12",1
"23/08/29","22:40",0.0,25.8,81.4,1008.1,330.4,1.0,1.7,340.0,0.00,22.4,27.0,"22:32:16",1
"23/08/29","22:50",0.0,25.7,81.9,1008.3,314.8,0.8,1.3,333.1,0.00,22.4,26.9,"22:41:12",1
"23/08/29","23:00",0.0,25.6,82.2,1008.3,324.3,1.0,1.6,342.2,0.00,22.4,26.7,"22:53:36",1
"23/08/29","23:10",0.0,25.7,82.3,1008.6,305.6,0.8,1.9,247.2,0.00,22.5,26.9,"23:08:24",1
"23/08/29","23:20",0.0,25.8,82.3,1008.1,287.0,0.7,1.8,252.4,0.00,22.6,26.8,"23:19:36",1
"23/08/29","23:30",0.0,26.0,82.0,1008.3,296.4,1.1,2.6,338.2,0.00,22.7,26.8,"23:22:00",1
"23/08/29","23:40",0.0,26.0,81.8,1008.3,269.8,0.8,1.6,235.0,0.00,22.7,26.6,"23:36:48",1
"23/08/29","23:50",0.0,25.9,81.9,1008.1,284.1,0.8,1.8,255.3,0.00,22.6,26.8,"23:43:12",1
"23/08/29","24:00",0.0,26.0,82.0,1008.1,310.1,1.1,2.1,256.4,0.00,22.7,26.7,"23:58:48",1
